Time,TemperatureF,DewpointF,PressureIn,WindDirection,WindDirectionDegrees,WindSpeedMPH,WindSpeedGustMPH,Humidity,HourlyPrecipIn,Conditions,Clouds,dailyrainin,SolarRadiationWatts/m^2,SoftwareType,DateUTC
2013-07-23 00:21:00,63.0,63.0,29.95,WNW,293,2.0,6.0,100,0.00,,,0.00,1.000000,,2013-07-23 07:21:00,
2013-07-23 00:33:00,63.0,63.0,29.95,WNW,293,2.0,6.0,100,0.00,,,0.00,1.000000,,2013-07-23 07:33:00,
2013-07-23 00:42:00,63.0,63.0,29.95,WNW,293,2.0,6.0,100,0.00,,,0.00,1.000000,,2013-07-23 07:42:00,
2013-07-23 00:52:00,63.0,63.0,29.95,WNW,293,2.0,6.0,100,0.00,,,0.00,1.000000,,2013-07-23 07:52:00,
2013-07-23 01:21:00,62.0,62.0,29.96,WSW,253,6.0,8.0,100,0.00,,,0.00,2.000000,,2013-07-23 08:21:00,
2013-07-23 01:33:00,62.0,62.0,29.96,WSW,253,6.0,8.0,100,0.00,,,0.00,2.000000,,2013-07-23 08:33:00,
2013-07-23 01:43:00,62.0,62.0,29.96,WSW,253,6.0,8.0,100,0.00,,,0.00,2.000000,,2013-07-23 08:43:00,
2013-07-23 01:52:00,62.0,62.0,29.96,WSW,253,6.0,8.0,100,0.00,,,0.00,2.000000,,2013-07-23 08:52:00,
2013-07-23 02:22:00,62.0,62.0,29.95,West,264,5.0,9.0,100,0.00,,,0.00,2.000000,,2013-07-23 09:22:00,
2013-07-23 02:33:00,62.0,62.0,29.95,West,264,5.0,9.0,100,0.00,,,0.00,2.000000,,2013-07-23 09:33:00,
2013-07-23 02:42:00,62.0,62.0,29.95,West,264,5.0,9.0,100,0.00,,,0.00,2.000000,,2013-07-23 09:42:00,
2013-07-23 02:52:00,62.0,62.0,29.95,West,264,5.0,9.0,100,0.00,,,0.00,2.000000,,2013-07-23 09:52:00,
2013-07-23 03:32:00,63.0,63.0,29.94,West,272,4.0,10.0,100,0.00,,,0.00,2.000000,,2013-07-23 10:32:00,
2013-07-23 03:43:00,63.0,63.0,29.94,West,272,4.0,10.0,100,0.00,,,0.00,2.000000,,2013-07-23 10:43:00,
2013-07-23 03:52:00,63.0,63.0,29.94,West,272,4.0,10.0,100,0.00,,,0.00,2.000000,,2013-07-23 10:52:00,
2013-07-23 04:43:00,59.0,59.0,29.95,NNE,13,5.0,11.0,100,0.00,,,0.00,2.000000,,2013-07-23 11:43:00,
2013-07-23 04:52:00,59.0,59.0,29.95,NNE,13,5.0,11.0,100,0.00,,,0.00,2.000000,,2013-07-23 11:52:00,
2013-07-23 05:22:00,60.0,60.0,29.95,North,5,4.0,7.0,100,0.00,,,0.00,1.000000,,2013-07-23 12:22:00,
2013-07-23 05:33:00,60.0,60.0,29.95,North,5,4.0,7.0,100,0.00,,,0.00,1.000000,,2013-07-23 12:33:00,
2013-07-23 05:43:00,60.0,60.0,29.95,North,5,4.0,7.0,100,0.00,,,0.00,1.000000,,2013-07-23 12:43:00,
2013-07-23 06:22:00,60.0,60.0,29.97,North,2,2.0,7.0,100,0.00,,,0.00,2.000000,,2013-07-23 13:22:00,
2013-07-23 06:32:00,60.0,60.0,29.97,North,2,2.0,7.0,100,0.00,,,0.00,2.000000,,2013-07-23 13:32:00,
2013-07-23 06:43:00,60.0,60.0,29.97,North,2,2.0,7.0,100,0.00,,,0.00,2.000000,,2013-07-23 13:43:00,
2013-07-23 06:52:00,60.0,60.0,29.97,North,2,2.0,7.0,100,0.00,,,0.00,2.000000,,2013-07-23 13:52:00,
2013-07-23 07:44:00,63.0,63.0,29.98,West,262,6.0,6.0,100,0.00,,,0.00,18.000000,,2013-07-23 14:44:00,
2013-07-23 07:53:00,63.0,63.0,29.98,West,262,6.0,6.0,100,0.00,,,0.00,18.000000,,2013-07-23 14:53:00,
2013-07-23 08:43:00,65.0,65.0,30.00,WSW,249,7.0,10.0,100,0.00,,,0.00,122.000000,,2013-07-23 15:43:00,
2013-07-23 08:52:00,65.0,65.0,30.00,WSW,249,7.0,10.0,100,0.00,,,0.00,122.000000,,2013-07-23 15:52:00,
2013-07-23 09:22:00,69.0,64.0,30.00,WSW,237,8.0,11.0,83,0.00,,,0.00,403.000000,,2013-07-23 16:22:00,
2013-07-23 09:33:00,69.0,64.0,30.00,WSW,237,8.0,11.0,83,0.00,,,0.00,403.000000,,2013-07-23 16:33:00,
2013-07-23 09:43:00,69.0,64.0,30.00,WSW,237,8.0,11.0,83,0.00,,,0.00,403.000000,,2013-07-23 16:43:00,
2013-07-23 09:52:00,69.0,64.0,30.00,WSW,237,8.0,11.0,83,0.00,,,0.00,403.000000,,2013-07-23 16:52:00,
2013-07-23 10:32:00,70.0,62.0,30.01,SW,222,6.0,13.0,76,0.00,,,0.00,502.000000,,2013-07-23 17:32:00,
2013-07-23 10:42:00,70.0,62.0,30.01,SW,222,6.0,13.0,76,0.00,,,0.00,502.000000,,2013-07-23 17:42:00,
2013-07-23 10:53:00,70.0,62.0,30.01,SW,222,6.0,13.0,76,0.00,,,0.00,502.000000,,2013-07-23 17:53:00,
2013-07-23 11:53:00,70.0,61.0,30.01,SW,229,8.0,11.0,73,0.00,,,0.00,746.000000,,2013-07-23 18:53:00,
2013-07-23 12:45:00,72.0,62.0,30.00,WSW,246,7.0,12.0,70,0.00,,,0.00,899.000000,,2013-07-23 19:45:00,
2013-07-23 12:52:00,72.0,62.0,30.00,WSW,246,7.0,12.0,70,0.00,,,0.00,899.000000,,2013-07-23 19:52:00,
2013-07-23 13:22:00,74.0,62.0,29.99,WSW,239,8.0,12.0,67,0.00,,,0.00,969.000000,,2013-07-23 20:22:00,
2013-07-23 13:34:00,74.0,62.0,29.99,WSW,239,8.0,12.0,67,0.00,,,0.00,969.000000,,2013-07-23 20:34:00,
2013-07-23 13:44:00,74.0,62.0,29.99,WSW,239,8.0,12.0,67,0.00,,,0.00,969.000000,,2013-07-23 20:44:00,
2013-07-23 13:53:00,74.0,62.0,29.99,WSW,239,8.0,12.0,67,0.00,,,0.00,969.000000,,2013-07-23 20:53:00,
2013-07-23 14:45:00,72.0,61.0,29.98,WSW,245,9.0,14.0,69,0.00,,,0.00,983.000000,,2013-07-23 21:45:00,
2013-07-23 14:53:00,72.0,61.0,29.98,WSW,245,9.0,14.0,69,0.00,,,0.00,983.000000,,2013-07-23 21:53:00,
2013-07-23 15:43:00,73.0,63.0,29.96,WSW,250,12.0,14.0,70,0.00,,,0.00,938.000000,,2013-07-23 22:43:00,
2013-07-23 15:54:00,73.0,63.0,29.96,WSW,250,12.0,14.0,70,0.00,,,0.00,938.000000,,2013-07-23 22:54:00,
2013-07-23 16:43:00,73.0,63.0,29.95,WSW,252,12.0,21.0,71,0.00,,,0.00,830.000000,,2013-07-23 23:43:00,
2013-07-23 16:54:00,73.0,63.0,29.95,WSW,252,12.0,21.0,71,0.00,,,0.00,830.000000,,2013-07-23 23:54:00,
2013-07-23 17:45:00,71.0,62.0,29.94,WSW,252,14.0,20.0,74,0.00,,,0.00,671.000000,,2013-07-24 00:45:00,
2013-07-23 17:53:00,71.0,62.0,29.94,WSW,252,14.0,20.0,74,0.00,,,0.00,671.000000,,2013-07-24 00:53:00,
2013-07-23 18:43:00,68.0,61.0,29.92,West,260,14.0,22.0,79,0.00,,,0.00,474.000000,,2013-07-24 01:43:00,
2013-07-23 19:35:00,67.0,62.0,29.90,West,265,15.0,24.0,84,0.00,,,0.00,240.000000,,2013-07-24 02:35:00,
2013-07-23 19:45:00,67.0,62.0,29.90,West,265,15.0,24.0,84,0.00,,,0.00,240.000000,,2013-07-24 02:45:00,
2013-07-23 19:54:00,67.0,62.0,29.90,West,265,15.0,24.0,84,0.00,,,0.00,240.000000,,2013-07-24 02:54:00,
2013-07-23 20:34:00,63.0,61.0,29.89,West,274,13.0,25.0,94,0.00,,,0.00,24.000000,,2013-07-24 03:34:00,
2013-07-23 20:43:00,63.0,61.0,29.89,West,274,13.0,25.0,94,0.00,,,0.00,24.000000,,2013-07-24 03:43:00,
2013-07-23 20:53:00,63.0,61.0,29.89,West,274,13.0,25.0,94,0.00,,,0.00,24.000000,,2013-07-24 03:53:00,
2013-07-23 21:43:00,63.0,62.0,29.91,West,277,10.0,25.0,95,0.00,,,0.00,1.000000,,2013-07-24 04:43:00,
2013-07-23 21:52:00,63.0,62.0,29.91,West,277,10.0,25.0,95,0.00,,,0.00,1.000000,,2013-07-24 04:52:00,
2013-07-23 22:22:00,64.0,63.0,29.92,WNW,286,5.0,21.0,95,0.00,,,0.00,0.000000,,2013-07-24 05:22:00,
2013-07-23 22:32:00,64.0,63.0,29.92,WNW,286,5.0,21.0,95,0.00,,,0.00,0.000000,,2013-07-24 05:32:00,
2013-07-23 22:43:00,64.0,63.0,29.92,WNW,286,5.0,21.0,95,0.00,,,0.00,0.000000,,2013-07-24 05:43:00,
2013-07-23 22:52:00,64.0,63.0,29.92,WNW,286,5.0,21.0,95,0.00,,,0.00,0.000000,,2013-07-24 05:52:00,
2013-07-23 23:43:00,62.0,60.0,29.94,North,353,11.0,19.0,94,0.00,,,0.00,0.000000,,2013-07-24 06:43:00,
2013-07-23 23:53:00,62.0,60.0,29.94,North,353,11.0,19.0,94,0.00,,,0.00,0.000000,,2013-07-24 06:53:00,